Showing default

NIMBUS 2, 2173

Orbit data source: Space-Track

NIMBUS 2, 2173 is a payload satellite owned by GSFC (US) in SSO that was launched on Sun, 15 May 1966 UTC via a THOR SLV-2A AGENA B launch vehicle from the Air Force Western Test Range (AFWTR). Payload-class satellites include a variety of spacecraft equipped with specific instruments for various scientific and technological missions. These include communications satellites like Starlink; space stations such as the ISS; scientific satellites like the Hubble; Earth observation satellites from companies like Planet Labs, Umbra, and HawkEye 360; GPS; miniature CubeSats for education and research; and military/defense satellites.

Loading next visibility...
Identifier
2173, 1966-040A
Orbit
SSO
Country
Flag of USUS
Related business
Manufacturer
GE/MSVD
Mission
Non-operational spacecraft
Bus & Motor
NIMBUS, Unknown motor
Mass
414 kg wet, 414 kg dry
Launch date (UTC)
1966-05-15 (60 years ago)
Launch vehicle
THOR SLV-2A AGENA B
Launch site
Air Force Western Test Range (AFWTR)
Object type
Payload
Rocket body
Debris
Shape & HBR
Unknown
Radar Cross Section
Large (>1 m²)

Expand to show TLE details & history
Last TLE update: 5 hours ago

TLE from 5 hours ago
0 NIMBUS 2
1 02173U 66040A   26102.33233417 -.00000024  00000-0  46465-4 0  9992
2 02173 100.5392 319.0409 0055934  91.4156  82.6065 13.33714736914844
Epoch: 2026-04-12T07:58Z
TLE epoch observation values (Epoch: 2026-04-12T07:58:33.672Z)
Latitude
5.17159°
Longitude
179.82169°
Altitude
1,129.82 km
Speed
7.291 km/s
True Right ascension
09h 20m 00s
True Declination
5° 08' 32"
Sunlit
Object was in daylight at epoch
Visualization orbit readout
Latitude
Unknown
Longitude
Unknown
Altitude
Unknown
Speed
Unknown
Apparent Right ascension
Unknown
Apparent Declination
Unknown
Sunlit
N/A
Visualization observer readout
Local Sidereal Time
19:41:35
Azimuth
Unknown
Elevation
Unknown
Doppler factor
Unknown
Orbital elements
Apogee altitude
1,172.149 km
Perigee altitude
1,088.155 km
Semi-major axis
7,508.289 km
Eccentricity
0.00559
Inclination
100.5392°
RAAN
319.0409°
Arg. of periapsis
91.4156°
True anomaly
83.24269°
Mean anomaly
82.6065°
Eccentric anomaly
82.92454°
Mean motion
3.33604 °/min
Orbital period
107.91 mins
BSTAR
0.000046465
Loading maneuver chart data...
Computing Atmospheric mass density...
Loading historical data...
Loading historical data...
Loading historical data...
Loading historical data...
Loading historical data...
Loading historical data...
Loading historical data...

Documentation

Showing up to 5 results
|